This demonstration page uses our WeatherBlox Daily Observations layout. Learn more.

Left ArrowRight Arrow

Hourly Observations for June 11, 2017

Temp ( °F °C ) Dew Point ( °F °C ) Humidity (%) Winds ( mph kmh ) Pressure ( in mb ) Visibility ( mi km ) Precip ( " mm )
12:52 am 00:52 Clear 71 21.7 64 17.8 79 79 SSE 12 19 29.89 1012 10 16 0.00 0.00
1:52 am 01:52 Clear 70 21.1 64 17.8 82 82 S 12 19 29.89 1012 10 16 0.00 0.00
2:52 am 02:52 Clear 69 20.6 63 17.2 81 81 SSE 14 22 29.89 1012 10 16 0.00 0.00
3:52 am 03:52 Clear 69 20.6 62 16.7 78 78 SSE 13 20 29.88 1012 10 16 0.00 0.00
4:52 am 04:52 Clear 68 20 61 16.1 78 78 SSE 14 22 29.90 1012 10 16 0.00 0.00
5:52 am 05:52 Clear 67 19.4 61 16.1 81 81 SSE 13 20 29.91 1013 10 16 0.00 0.00
6:52 am 06:52 Sunny 68 20 62 16.7 81 81 SSE 16 26 29.91 1013 10 16 0.00 0.00
7:52 am 07:52 Sunny 71 21.7 63 17.2 76 76 S 15 24 29.92 1013 10 16 0.00 0.00
8:52 am 08:52 Sunny 75 23.9 66 18.9 74 74 S 17 28 29.93 1014 10 16 0.00 0.00
9:52 am 09:52 Sunny 79 26.1 66 18.9 65 65 SSW 20 31 29.93 1014 10 16 0.00 0.00
10:52 am 10:52 Sunny 81 27.2 65 18.3 58 58 SSW 21 33 29.93 1014 10 16 0.00 0.00
11:52 am 11:52 Sunny 84 28.9 64 17.8 51 51 S 21 33 29.94 1014 10 16 0.00 0.00
12:52 pm 12:52 Sunny 85 29.4 65 18.3 51 51 SSE 21 33 29.93 1014 10 16 0.00 0.00
1:52 pm 13:52 Sunny 86 30 64 17.8 48 48 S 17 28 29.93 1013 10 16 0.00 0.00
2:52 pm 14:52 Mostly Sunny 88 31.1 64 17.8 45 45 S 17 28 29.91 1013 10 16 0.00 0.00
3:52 pm 15:52 Mostly Sunny 87 30.6 63 17.2 45 45 S 23 37 29.91 1013 10 16 0.00 0.00
4:52 pm 16:52 Sunny 87 30.6 64 17.8 46 46 S 21 33 29.90 1013 10 16 0.00 0.00
5:52 pm 17:52 Sunny 85 29.4 65 18.3 51 51 S 17 28 29.89 1012 10 16 0.00 0.00
6:52 pm 18:52 Sunny 84 28.9 64 17.8 51 51 S 14 22 29.88 1012 10 16 0.00 0.00
7:52 pm 19:52 Sunny 82 27.8 64 17.8 55 55 S 15 24 29.88 1012 10 16 0.00 0.00
8:52 pm 20:52 Clear 79 26.1 65 18.3 62 62 SSE 12 19 29.88 1012 10 16 0.00 0.00
9:52 pm 21:52 Clear 78 25.6 65 18.3 64 64 SSE 15 24 29.89 1012 10 16 0.00 0.00
10:52 pm 22:52 Clear 76 24.4 65 18.3 69 69 S 13 20 29.91 1013 10 16 0.00 0.00
11:52 pm 23:52 Clear 75 23.9 64 17.8 69 69 SSE 13 20 29.92 1013 10 16 0.00 0.00

Powered by AerisWeather